Current Weather Conditions: station ENFB

sailwx.info

See reports from other nearby stations

no recent reports received from weather station ID ENFB

Tides Pressure Air temp Water temp Dewpoint Dewpoint depression Visibility Wind speed Wind direction Waves Ship positions
date/time (UTC)wind fromknots sea level pressurealtimeterstation pressurevisibilityair tempwater tempwave heightnotes
2017-Jan-17 05:20 240 18 5.4 9.0
2017-Jan-17 04:50 240 19 1.0 9.0 Light drizzle. Mist.
2017-Jan-17 04:20 230 18 0.5 9.0 Light rain showers. Mist.
2017-Jan-17 03:50 230 18 0.2 9.0 Light rain showers. Fog.
2017-Jan-17 03:20 230 18 0.4 9.0 Light rain showers. Fog.
2017-Jan-17 02:50 230 15 0.6 9.0 Light rain. Mist.
2017-Jan-17 02:20 230 18 0.3 9.0 Light rain. Fog.
2017-Jan-17 01:50 240 20 0.4 9.0 Light rain. Fog.
2017-Jan-17 01:20 230 20 0.2 9.0 Light rain. Fog.
2017-Jan-17 00:50 230 20 0.3 9.0 Light rain. Fog.
2017-Jan-17 00:20 230 20 0.3 9.0 Light rain. Fog.
2017-Jan-16 23:50 230 20 0.2 9.0 Light rain. Fog.
2017-Jan-16 23:20 230 20 0.3 9.0 Light rain. Fog.
2017-Jan-16 22:50 230 20 0.5 9.0 Light rain. Fog.
2017-Jan-16 22:20 230 20 0.4 9.0 Light rain. Fog.
2017-Jan-16 21:50 220 20 0.5 9.0 Light rain. Fog.
2017-Jan-16 21:20 220 22 0.6 9.0 Light rain. Mist.
2017-Jan-16 20:50 210 24 0.7 9.0 Light rain. Mist.
2017-Jan-16 20:20 210 25 1.2 9.0 Light rain. Mist.
2017-Jan-16 19:50 210 26 1.2 9.0 Light rain. Mist.
2017-Jan-16 19:20 200 26 1.5 9.0 Light rain. Mist.
2017-Jan-16 18:50 200 26 1.1 8.0 Light rain. Mist.
2017-Jan-16 18:20 200 26 1.9 8.0 Light rain. Mist.
2017-Jan-16 17:50 200 28 1.7 8.0 Light rain. Mist.
2017-Jan-16 17:20 200 31 1.1 8.0 Light rain. Mist.
2017-Jan-16 16:50 190 32 2.5 8.0 Light rain showers. Mist.
2017-Jan-16 16:20 190 34 3.2 8.0 Light rain showers.
2017-Jan-16 15:50 190 34 2.6 7.0 Light rain. Mist.
2017-Jan-16 15:20 190 36 3.2 7.0 Light rain.
2017-Jan-16 14:50 190 38 2.6 7.0 Light rain showers. Mist.
2017-Jan-16 14:20 190 36 2.7 7.0 Light rain showers.
2017-Jan-16 13:50 190 36 5.4 7.0 Light rain.
2017-Jan-16 13:20 190 35 4.3 6.0 Light rain.
2017-Jan-16 12:50 190 38 2.7 6.0 Light rain.
2017-Jan-16 12:20 190 34 3.2 6.0 Light rain.
2017-Jan-16 11:50 180 34 4.3 6.0 Light rain.
2017-Jan-16 11:20 180 35 2.5 6.0 Light rain. Mist.
2017-Jan-16 10:50 180 33 5.4 6.0
2017-Jan-16 10:20 180 32 5.4 6.0 Light rain showers.
2017-Jan-16 09:50 180 31 5.4 6.0 Light rain showers.
2017-Jan-16 09:20 180 32 5.4 6.0 Drizzle.
2017-Jan-16 08:50 180 33 5.4 6.0 Drizzle.
2017-Jan-16 08:20 180 31 5.4 6.0 Light rain.
2017-Jan-16 07:50 5.4 6.0
2017-Jan-16 07:20 170 29 5.4 6.0
2017-Jan-16 06:50 170 27 5.4 6.0
2017-Jan-16 06:20 180 27 5.4 6.0
2017-Jan-16 05:50 180 27 5.4 6.0
2017-Jan-16 05:20 180 25 5.4 6.0
2017-Jan-16 04:50 170 22 5.4 6.0
2017-Jan-16 04:20 180 21 5.4 6.0
2017-Jan-16 03:50 180 21 5.4 6.0
2017-Jan-16 03:20 170 21 5.4 6.0
2017-Jan-16 02:50 180 20 5.4 6.0
2017-Jan-16 02:20 170 20 5.4 6.0
2017-Jan-16 01:50 170 20 5.4 6.0
2017-Jan-16 01:20 180 18 5.4 5.0
2017-Jan-16 00:50 180 17 5.4 5.0
2017-Jan-16 00:20 180 13 5.4 5.0
2017-Jan-15 23:50 180 14 5.4 5.0
2017-Jan-15 23:20 180 14 5.4 5.0
2017-Jan-15 22:50 180 13 5.4 5.0
2017-Jan-15 22:20 180 13 5.4 5.0
2017-Jan-15 21:50 190 13 5.4 5.0
2017-Jan-15 21:20 190 11 5.4 5.0
2017-Jan-15 20:50 180 11 5.4 5.0
2017-Jan-15 20:20 190 11 5.4 5.0
2017-Jan-15 19:50 5.4 5.0
2017-Jan-15 19:20 190 8 5.4 5.0
2017-Jan-15 18:50 180 5 gusting 14 5.4 5.0
2017-Jan-15 18:20 5.4 5.0
2017-Jan-15 17:50 130 4 gusting 13 5.4 5.0
2017-Jan-15 17:20 140 1 5.4 4.0
2017-Jan-15 16:50 5.4 4.0
2017-Jan-15 16:20 240 0 5.4 4.0
2017-Jan-15 15:50 260 2 5.4 4.0
2017-Jan-15 15:20 240 4 5.4 4.0
2017-Jan-15 14:50 250 2 5.4 4.0
2017-Jan-15 14:20 240 5 5.4 4.0
2017-Jan-15 13:50 250 2 5.4 4.0
2017-Jan-15 13:20 5.4 4.0
2017-Jan-15 12:50 5.4 4.0
2017-Jan-15 12:20 5.4 4.0
2017-Jan-15 11:50 310 1 5.4 4.0
2017-Jan-15 11:20 250 0 5.4 3.0
2017-Jan-15 10:50 300 2 5.4 3.0
2017-Jan-15 10:20 340 1 5.4 3.0
2017-Jan-15 09:50 340 1 5.4 3.0
2017-Jan-15 09:20 330 2 5.4 3.0
2017-Jan-15 08:50 360 2 5.4 3.0
2017-Jan-15 08:20 5.4 3.0
2017-Jan-15 07:50 320 2 5.4 3.0
2017-Jan-15 07:20 5.4 2.0